| time (UTC) | temp C | wind direction | speed KPH | gust KPH | rain 1hr cm | rain 24hr cm | rain mn cm | humidity % | barometer mb |
| 20260506124429 | 13 | 202 | 4.8 | 11.3 | 0.05 | 0.99 | 0.46 | 96 | 1012.7 |
| 20260506124250 | 13 | 286 | 4.8 | 11.3 | 0.05 | 0.99 | 0.46 | 96 | 1012.6 |
| 20260506124217 | 13 | 236 | 4.8 | 16.1 | 0.05 | 0.99 | 0.46 | 96 | 1012.6 |
| 20260506124051 | 13 | 244 | 4.8 | 16.1 | 0.05 | 0.99 | 0.46 | 96 | 1012.6 |
| 20260506123539 | 13 | 235 | 4.8 | 17.7 | 0.05 | 0.99 | 0.46 | 96 | 1012.6 |
| 20260506123506 | 13 | 242 | 4.8 | 17.7 | 0.05 | 0.99 | 0.46 | 96 | 1012.6 |
| 20260506123315 | 13 | 254 | 8.0 | 17.7 | 0.05 | 0.99 | 0.46 | 96 | 1012.6 |
| 20260506123144 | 13 | 250 | 6.4 | 17.7 | 0.05 | 0.99 | 0.46 | 96 | 1012.6 |
| 20260506123107 | 13 | 252 | 6.4 | 17.7 | 0.05 | 0.99 | 0.46 | 96 | 1012.7 |
| 20260506122950 | 13 | 273 | 8.0 | 17.7 | 0.05 | 0.99 | 0.46 | 96 | 1012.7 |
| 20260506122754 | 13 | 306 | 11.3 | 17.7 | 0.05 | 0.99 | 0.46 | 96 | 1012.7 |
| 20260506122641 | 13 | 281 | 9.7 | 16.1 | 0.05 | 0.99 | 0.46 | 96 | 1012.7 |
| 20260506122611 | 13 | 273 | 8.0 | 14.5 | 0.05 | 0.99 | 0.46 | 95 | 1012.8 |
| 20260506122413 | 13 | 254 | 1.6 | 11.3 | 0.05 | 0.99 | 0.46 | 95 | 1012.6 |
| 20260506122247 | 13 | 239 | 1.6 | 9.7 | 0.05 | 0.99 | 0.46 | 95 | 1012.4 |
| 20260506122214 | 13 | 190 | 1.6 | 9.7 | 0.05 | 0.99 | 0.43 | 96 | 1012.4 |
| 20260506122124 | 13 | 190 | 1.6 | 9.7 | 0.05 | 0.99 | 0.43 | 96 | 1012.5 |
| 20260506121932 | 13 | 201 | 3.2 | 9.7 | 0.05 | 0.99 | 0.43 | 96 | 1012.5 |
| 20260506121803 | 13 | 279 | 0.0 | 9.7 | 0.05 | 0.99 | 0.43 | 95 | 1012.5 |
| 20260506121439 | 13 | 248 | 4.8 | 12.9 | 0.05 | 0.99 | 0.43 | 95 | 1012.6 |
| 20260506120417 | 13 | 237 | 4.8 | 12.9 | 0.05 | 0.99 | 0.43 | 95 | 1012.6 |
| 20260506120258 | 13 | 267 | 9.7 | 12.9 | 0.05 | 0.99 | 0.43 | 95 | 1012.5 |
| 20260506120113 | 13 | 225 | 6.4 | 17.7 | 0.05 | 0.99 | 0.43 | 95 | 1012.6 |
| 20260506115945 | 13 | 273 | 4.8 | 17.7 | 0.05 | 0.99 | 0.43 | 95 | 1012.7 |
| 20260506115849 | 13 | 252 | 4.8 | 17.7 | 0.05 | 0.99 | 0.43 | 95 | 1012.7 |
| 20260506115749 | 13 | 228 | 6.4 | 17.7 | 0.05 | 0.99 | 0.43 | 95 | 1012.7 |
| 20260506115553 | 13 | 238 | 4.8 | 17.7 | 0.05 | 0.99 | 0.43 | 95 | 1012.6 |
| 20260506115421 | 13 | 246 | 9.7 | 17.7 | 0.05 | 0.99 | 0.43 | 95 | 1012.7 |
| 20260506115218 | 13 | 286 | 4.8 | 14.5 | 0.05 | 0.99 | 0.43 | 96 | 1012.7 |
| 20260506115030 | 13 | 281 | 8.0 | 14.5 | 0.05 | 0.99 | 0.43 | 96 | 1012.6 |
| 20260506114932 | 13 | 243 | 8.0 | 14.5 | 0.05 | 0.99 | 0.43 | 96 | 1012.6 |
| 20260506114825 | 13 | 246 | 6.4 | 14.5 | 0.05 | 0.99 | 0.43 | 96 | 1012.6 |
| 20260506114640 | 13 | 248 | 6.4 | 11.3 | 0.05 | 0.99 | 0.43 | 96 | 1012.6 |
| 20260506114450 | 13 | 236 | 4.8 | 9.7 | 0.05 | 0.99 | 0.43 | 97 | 1012.6 |
| 20260506114301 | 13 | 246 | 4.8 | 11.3 | 0.05 | 0.99 | 0.43 | 97 | 1012.5 |
| 20260506114121 | 13 | 224 | 3.2 | 11.3 | 0.05 | 0.99 | 0.43 | 98 | 1012.5 |
| 20260506114031 | 13 | 248 | 3.2 | 11.3 | 0.05 | 0.99 | 0.43 | 98 | 1012.5 |
| 20260506113937 | 13 | 228 | 3.2 | 11.3 | 0.05 | 0.99 | 0.43 | 98 | 1012.6 |
| 20260506113749 | 13 | 251 | 4.8 | 11.3 | 0.05 | 0.99 | 0.43 | 97 | 1012.5 |
| 20260506113600 | 13 | 234 | 6.4 | 11.3 | 0.05 | 0.99 | 0.43 | 97 | 1012.6 |
| 20260506113011 | 13 | 243 | 6.4 | 11.3 | 0.05 | 0.99 | 0.43 | 97 | 1012.6 |
| 20260506112918 | 13 | 266 | 6.4 | 8.0 | 0.05 | 0.99 | 0.43 | 97 | 1012.6 |
| 20260506112411 | 13 | 223 | 4.8 | 6.4 | 0.05 | 0.99 | 0.43 | 98 | 1012.8 |
| 20260506112232 | 13 | 238 | 4.8 | 11.3 | 0.03 | 0.99 | 0.41 | 98 | 1012.7 |
| 20260506111827 | 13 | 221 | 4.8 | 11.3 | 0.03 | 0.99 | 0.41 | 98 | 1012.7 |
| 20260506111658 | 12 | 232 | 4.8 | 11.3 | 0.05 | 0.99 | 0.41 | 98 | 1012.7 |
| 20260506111608 | 12 | 229 | 3.2 | 11.3 | 0.05 | 0.99 | 0.41 | 97 | 1012.7 |
| 20260506111505 | 12 | 234 | 6.4 | 11.3 | 0.05 | 0.99 | 0.41 | 98 | 1012.7 |
| 20260506111340 | 13 | 240 | 4.8 | 11.3 | 0.05 | 0.99 | 0.41 | 98 | 1012.7 |
| 20260506111148 | 12 | 237 | 4.8 | 11.3 | 0.05 | 0.99 | 0.41 | 98 | 1012.7 |
| 20260506111005 | 12 | 216 | 8.0 | 12.9 | 0.05 | 0.99 | 0.41 | 98 | 1012.7 |
| 20260506110825 | 12 | 236 | 6.4 | 12.9 | 0.05 | 0.99 | 0.41 | 98 | 1012.7 |
| 20260506110730 | 12 | 238 | 4.8 | 12.9 | 0.05 | 0.99 | 0.41 | 98 | 1012.6 |
| 20260506110628 | 12 | 226 | 4.8 | 12.9 | 0.05 | 0.99 | 0.41 | 98 | 1012.7 |
| 20260506110445 | 12 | 252 | 6.4 | 12.9 | 0.05 | 0.99 | 0.41 | 98 | 1012.6 |
| 20260506110255 | 12 | 247 | 3.2 | 12.9 | 0.05 | 0.99 | 0.41 | 98 | 1012.6 |
| 20260506110105 | 12 | 233 | 6.4 | 12.9 | 0.05 | 0.99 | 0.41 | 98 | 1012.7 |
| 20260506105937 | 12 | 242 | 3.2 | 12.9 | 0.05 | 0.99 | 0.41 | 98 | 1012.7 |
| 20260506105843 | 12 | 234 | 6.4 | 12.9 | 0.05 | 0.99 | 0.41 | 97 | 1012.7 |
| 20260506105356 | 12 | 237 | 6.4 | 12.9 | 0.05 | 1.02 | 0.41 | 97 | 1012.6 |
| 20260506104250 | 12 | 231 | 4.8 | 8.0 | 0.05 | 0.99 | 0.38 | 97 | 1012.7 |
| 20260506104214 | 12 | 226 | 4.8 | 8.0 | 0.05 | 0.99 | 0.38 | 97 | 1012.7 |
| 20260506104147 | 12 | 226 | 4.8 | 8.0 | 0.05 | 0.99 | 0.38 | 97 | 1012.6 |
| 20260506104012 | 12 | 257 | 4.8 | 8.0 | 0.05 | 0.99 | 0.38 | 97 | 1012.7 |
| 20260506103832 | 12 | 225 | 4.8 | 9.7 | 0.05 | 0.99 | 0.38 | 97 | 1012.7 |
| 20260506103713 | 12 | 225 | 6.4 | 9.7 | 0.05 | 0.99 | 0.38 | 97 | 1012.7 |
| 20260506103633 | 12 | 225 | 6.4 | 14.5 | 0.05 | 0.99 | 0.38 | 97 | 1012.7 |
| 20260506103609 | 12 | 225 | 6.4 | 14.5 | 0.05 | 0.99 | 0.38 | 97 | 1012.7 |
| 20260506103536 | 12 | 225 | 6.4 | 14.5 | 0.05 | 0.99 | 0.38 | 97 | 1012.7 |
| 20260506103441 | 12 | 236 | 6.4 | 14.5 | 0.05 | 1.02 | 0.38 | 97 | 1012.8 |
| 20260506103334 | 12 | 259 | 9.7 | 14.5 | 0.05 | 1.02 | 0.38 | 97 | 1012.7 |
| 20260506103302 | 12 | 245 | 9.7 | 14.5 | 0.05 | 1.02 | 0.38 | 97 | 1012.8 |
| 20260506103126 | 12 | 269 | 11.3 | 14.5 | 0.05 | 1.02 | 0.38 | 97 | 1012.9 |
| 20260506102936 | 12 | 256 | 3.2 | 11.3 | 0.05 | 1.02 | 0.38 | 97 | 1012.8 |
| 20260506102903 | 12 | 265 | 0.0 | 9.7 | 0.05 | 1.02 | 0.38 | 97 | 1012.7 |
| 20260506102735 | 12 | 307 | 1.6 | 8.0 | 0.05 | 1.02 | 0.38 | 97 | 1012.6 |
| 20260506102311 | 12 | 229 | 3.2 | 9.7 | 0.05 | 1.02 | 0.38 | 97 | 1012.8 |
| 20260506102238 | 12 | 218 | 3.2 | 9.7 | 0.05 | 1.02 | 0.38 | 97 | 1012.7 |
| 20260506102102 | 12 | 221 | 4.8 | 9.7 | 0.05 | 1.02 | 0.38 | 97 | 1012.6 |
| 20260506101930 | 12 | 214 | 4.8 | 9.7 | 0.03 | 0.99 | 0.36 | 97 | 1012.6 |
| 20260506101902 | 12 | 262 | 4.8 | 9.7 | 0.03 | 0.99 | 0.36 | 97 | 1012.6 |
| 20260506101732 | 12 | 238 | 6.4 | 9.7 | 0.03 | 0.99 | 0.36 | 97 | 1012.5 |
| 20260506101553 | 12 | 225 | 4.8 | 9.7 | 0.03 | 0.99 | 0.36 | 97 | 1012.6 |
| 20260506101444 | 12 | 220 | 4.8 | 19.3 | 0.05 | 0.99 | 0.36 | 97 | 1012.5 |
| 20260506101413 | 12 | 221 | 4.8 | 19.3 | 0.05 | 0.99 | 0.36 | 97 | 1012.5 |
| 20260506101223 | 12 | 232 | 6.4 | 19.3 | 0.05 | 1.02 | 0.36 | 97 | 1012.6 |
| 20260506101049 | 12 | 220 | 4.8 | 22.5 | 0.05 | 1.02 | 0.36 | 97 | 1012.6 |
| 20260506101019 | 12 | 229 | 4.8 | 22.5 | 0.05 | 1.02 | 0.36 | 97 | 1012.4 |
| 20260506100843 | 12 | 217 | 4.8 | 22.5 | 0.05 | 1.02 | 0.36 | 97 | 1012.5 |
| 20260506100700 | 12 | 207 | 9.7 | 22.5 | 0.05 | 1.02 | 0.36 | 97 | 1012.5 |
| 20260506100543 | 12 | 272 | 8.0 | 22.5 | 0.05 | 1.02 | 0.36 | 97 | 1012.5 |
| 20260506100104 | 12 | 221 | 11.3 | 22.5 | 0.05 | 1.02 | 0.36 | 97 | 1012.5 |
| 20260506095915 | 12 | 231 | 4.8 | 14.5 | 0.05 | 1.02 | 0.36 | 97 | 1012.4 |
| 20260506095855 | 12 | 234 | 8.0 | 14.5 | 0.05 | 1.02 | 0.36 | 97 | 1012.4 |
| 20260506095709 | 12 | 240 | 8.0 | 14.5 | 0.05 | 1.02 | 0.36 | 97 | 1012.4 |
| 20260506095536 | 12 | 215 | 6.4 | 8.0 | 0.05 | 1.02 | 0.36 | 97 | 1012.4 |
| 20260506095435 | 12 | 225 | 4.8 | 11.3 | 0.05 | 1.02 | 0.36 | 97 | 1012.3 |
| 20260506095349 | 12 | 232 | 4.8 | 11.3 | 0.05 | 1.02 | 0.36 | 97 | 1012.4 |
| 20260506095155 | 12 | 240 | 4.8 | 11.3 | 0.05 | 1.02 | 0.36 | 97 | 1012.3 |
| 20260506094426 | 12 | 232 | 4.8 | 11.3 | 0.03 | 1.02 | 0.33 | 97 | 1012.2 |
| 20260506094240 | 12 | 230 | 6.4 | 11.3 | 0.03 | 1.02 | 0.33 | 97 | 1012.2 |
| 20260506094136 | 12 | 296 | 6.4 | 9.7 | 0.03 | 1.02 | 0.33 | 97 | 1012.3 |
| 20260506094029 | 12 | 249 | 6.4 | 9.7 | 0.03 | 1.02 | 0.33 | 97 | 1012.1 |
| 20260506093855 | 12 | 217 | 4.8 | 12.9 | 0.03 | 1.02 | 0.33 | 97 | 1012.2 |
| 20260506093715 | 12 | 245 | 4.8 | 12.9 | 0.03 | 1.02 | 0.33 | 97 | 1012.1 |
| 20260506093536 | 12 | 211 | 6.4 | 12.9 | 0.03 | 1.02 | 0.33 | 97 | 1012.0 |
| 20260506093405 | 12 | 211 | 4.8 | 12.9 | 0.03 | 1.02 | 0.33 | 97 | 1012.0 |
| 20260506093309 | 12 | 225 | 6.4 | 12.9 | 0.03 | 1.02 | 0.33 | 97 | 1012.0 |
| 20260506093214 | 12 | 206 | 6.4 | 12.9 | 0.03 | 1.02 | 0.33 | 97 | 1012.0 |
| 20260506093025 | 12 | 228 | 6.4 | 12.9 | 0.05 | 1.02 | 0.33 | 97 | 1012.0 |
| 20260506092627 | 12 | 232 | 6.4 | 12.9 | 0.05 | 1.02 | 0.33 | 97 | 1012.0 |
| 20260506092423 | 12 | 234 | 6.4 | 12.9 | 0.05 | 1.02 | 0.33 | 97 | 1012.0 |
| 20260506092246 | 12 | 234 | 6.4 | 12.9 | 0.05 | 1.02 | 0.33 | 97 | 1012.0 |
| 20260506092149 | 12 | 213 | 6.4 | 11.3 | 0.05 | 1.02 | 0.33 | 97 | 1012.0 |
| 20260506092052 | 12 | 254 | 6.4 | 11.3 | 0.05 | 1.02 | 0.33 | 97 | 1012.0 |
| 20260506091919 | 12 | 224 | 4.8 | 11.3 | 0.05 | 1.02 | 0.33 | 97 | 1012.0 |
| 20260506091758 | 12 | 246 | 8.0 | 11.3 | 0.05 | 1.04 | 0.33 | 97 | 1011.9 |
| 20260506091739 | 12 | 256 | 8.0 | 11.3 | 0.05 | 1.04 | 0.33 | 97 | 1011.9 |
| 20260506091614 | 12 | 235 | 3.2 | 11.3 | 0.05 | 1.04 | 0.33 | 97 | 1011.9 |
| 20260506091434 | 12 | 215 | 4.8 | 6.4 | 0.03 | 1.02 | 0.33 | 97 | 1012.0 |
| 20260506091340 | 12 | 221 | 4.8 | 6.4 | 0.03 | 1.02 | 0.33 | 97 | 1012.0 |
| 20260506091240 | 12 | 263 | 3.2 | 6.4 | 0.03 | 1.02 | 0.33 | 97 | 1011.9 |
| 20260506091122 | 12 | 206 | 4.8 | 6.4 | 0.03 | 1.02 | 0.33 | 97 | 1012.0 |
| 20260506090740 | 12 | 229 | 3.2 | 6.4 | 0.03 | 1.02 | 0.33 | 97 | 1011.9 |
| 20260506090552 | 12 | 223 | 3.2 | 6.4 | 0.03 | 1.02 | 0.33 | 97 | 1012.0 |
| 20260506090414 | 12 | 213 | 4.8 | 6.4 | 0.03 | 1.02 | 0.33 | 97 | 1011.9 |
| 20260506090318 | 12 | 234 | 3.2 | 6.4 | 0.03 | 1.02 | 0.33 | 97 | 1011.9 |
| 20260506090216 | 12 | 229 | 3.2 | 6.4 | 0.03 | 1.02 | 0.33 | 97 | 1011.9 |
| 20260506090044 | 12 | 221 | 3.2 | 6.4 | 0.03 | 1.02 | 0.33 | 97 | 1011.9 |
| 20260506085645 | 12 | 271 | 3.2 | 6.4 | 0.03 | 1.02 | 0.33 | 97 | 1011.9 |
| 20260506085455 | 12 | 219 | 3.2 | 6.4 | 0.03 | 1.02 | 0.33 | 97 | 1011.8 |
| 20260506085320 | 12 | 198 | 4.8 | 6.4 | 0.03 | 1.04 | 0.33 | 97 | 1011.8 |
| 20260506085220 | 12 | 230 | 3.2 | 6.4 | 0.03 | 1.04 | 0.33 | 97 | 1011.9 |
| 20260506084342 | 12 | 237 | 3.2 | 8.0 | 0.03 | 1.04 | 0.33 | 97 | 1011.9 |
| 20260506084149 | 12 | 230 | 3.2 | 8.0 | 0.03 | 1.04 | 0.33 | 97 | 1011.8 |
| 20260506084011 | 12 | 198 | 4.8 | 8.0 | 0.03 | 1.04 | 0.33 | 97 | 1011.8 |
| 20260506083915 | 12 | 223 | 3.2 | 8.0 | 0.03 | 1.04 | 0.33 | 97 | 1011.8 |
| 20260506083424 | 12 | 234 | 3.2 | 8.0 | 0.03 | 1.04 | 0.33 | 97 | 1011.8 |
| 20260506083239 | 12 | 220 | 3.2 | 9.7 | 0.05 | 1.04 | 0.33 | 97 | 1011.9 |
| 20260506083049 | 12 | 240 | 3.2 | 9.7 | 0.05 | 1.04 | 0.33 | 97 | 1011.8 |
| 20260506082911 | 12 | 241 | 4.8 | 9.7 | 0.05 | 1.04 | 0.33 | 97 | 1011.9 |
| 20260506082110 | 12 | 205 | 6.4 | 9.7 | 0.03 | 1.04 | 0.30 | 97 | 1011.9 |
| 20260506081920 | 12 | 217 | 4.8 | 9.7 | 0.03 | 1.04 | 0.30 | 97 | 1011.9 |
| 20260506081724 | 12 | 200 | 4.8 | 9.7 | 0.03 | 1.04 | 0.30 | 97 | 1011.9 |
| 20260506080951 | 12 | 261 | 3.2 | 9.7 | 0.03 | 1.04 | 0.30 | 97 | 1011.9 |
| 20260506080814 | 12 | 217 | 4.8 | 9.7 | 0.03 | 1.04 | 0.30 | 98 | 1011.9 |
| 20260506080628 | 12 | 167 | 4.8 | 9.7 | 0.03 | 1.04 | 0.30 | 98 | 1011.9 |
| 20260506080442 | 12 | 230 | 4.8 | 9.7 | 0.03 | 1.04 | 0.30 | 98 | 1011.8 |
| 20260506080307 | 12 | 242 | 3.2 | 9.7 | 0.03 | 1.04 | 0.30 | 98 | 1011.9 |
| 20260506080211 | 12 | 244 | 4.8 | 9.7 | 0.03 | 1.04 | 0.30 | 98 | 1011.8 |
| 20260506080105 | 12 | 209 | 4.8 | 9.7 | 0.03 | 1.04 | 0.30 | 98 | 1011.9 |
| 20260506073521 | 11 | 215 | 3.2 | 6.4 | 0.03 | 1.07 | 0.30 | 98 | 1011.9 |
| 20260506073320 | 11 | 249 | 3.2 | 6.4 | 0.03 | 1.07 | 0.30 | 98 | 1011.9 |
| 20260506073143 | 11 | 220 | 1.6 | 6.4 | 0.03 | 1.09 | 0.30 | 98 | 1011.9 |
| 20260506072736 | 11 | 225 | 1.6 | 6.4 | 0.03 | 1.09 | 0.30 | 98 | 1012.0 |
| 20260506072622 | 11 | 225 | 1.6 | 6.4 | 0.03 | 1.09 | 0.30 | 98 | 1012.0 |
| 20260506072443 | 11 | 301 | 1.6 | 6.4 | 0.03 | 1.07 | 0.30 | 98 | 1012.0 |
| 20260506072255 | 11 | 206 | 1.6 | 6.4 | 0.03 | 1.07 | 0.28 | 98 | 1011.9 |
| 20260506072117 | 11 | 216 | 0.0 | 4.8 | 0.03 | 1.07 | 0.28 | 98 | 1011.9 |
| 20260506072035 | 11 | 215 | 0.0 | 4.8 | 0.03 | 1.07 | 0.28 | 98 | 1011.9 |
| 20260506071930 | 11 | 198 | 0.0 | 4.8 | 0.03 | 1.07 | 0.28 | 98 | 1011.9 |
| 20260506071801 | 11 | 231 | 1.6 | 4.8 | 0.03 | 1.07 | 0.28 | 98 | 1011.9 |
| 20260506071627 | 11 | 252 | 1.6 | 4.8 | 0.03 | 1.07 | 0.28 | 98 | 1011.8 |
| 20260506071458 | 11 | 194 | 3.2 | 6.4 | 0.03 | 1.07 | 0.28 | 98 | 1011.8 |
| 20260506071015 | 11 | 308 | 0.0 | 6.4 | 0.03 | 1.07 | 0.28 | 98 | 1011.8 |
| 20260506070923 | 11 | 206 | 0.0 | 6.4 | 0.03 | 1.09 | 0.28 | 98 | 1011.8 |
| 20260506070824 | 11 | 206 | 3.2 | 6.4 | 0.03 | 1.09 | 0.28 | 98 | 1011.9 |
| 20260506070645 | 11 | 152 | 1.6 | 6.4 | 0.03 | 1.09 | 0.28 | 98 | 1011.7 |
| 20260506062342 | 11 | 201 | 0.0 | 3.2 | 0.03 | 1.09 | 0.25 | 98 | 1011.7 |
| 20260506061942 | 10 | 205 | 0.0 | 3.2 | 0.03 | 1.09 | 0.25 | 98 | 1011.8 |
| 20260506061843 | 10 | 191 | 1.6 | 3.2 | 0.03 | 1.09 | 0.25 | 98 | 1011.8 |
| 20260506061334 | 10 | 150 | 0.0 | 3.2 | 0.03 | 1.09 | 0.25 | 98 | 1011.7 |
| 20260506061152 | 10 | 193 | 1.6 | 3.2 | 0.03 | 1.09 | 0.25 | 98 | 1011.7 |
| 20260506060755 | 10 | 193 | 1.6 | 4.8 | 0.03 | 1.09 | 0.25 | 98 | 1011.7 |
| 20260506060712 | 10 | 193 | 0.0 | 4.8 | 0.03 | 1.09 | 0.25 | 98 | 1011.7 |
| 20260506060552 | 10 | 227 | 1.6 | 4.8 | 0.03 | 1.09 | 0.25 | 98 | 1011.7 |
| 20260506060420 | 10 | 216 | 1.6 | 4.8 | 0.03 | 1.09 | 0.25 | 98 | 1011.8 |
| 20260506051307 | 10 | 185 | 1.6 | 3.2 | 0.03 | 1.09 | 0.23 | 98 | 1011.3 |
| 20260506051238 | 10 | 182 | 1.6 | 3.2 | 0.03 | 1.09 | 0.23 | 98 | 1011.4 |
| 20260506051139 | 10 | 225 | 1.6 | 3.2 | 0.03 | 1.09 | 0.23 | 97 | 1011.3 |
| 20260506050610 | 10 | 227 | 1.6 | 3.2 | 0.03 | 1.09 | 0.23 | 98 | 1011.2 |
| 20260506050529 | 10 | 227 | 1.6 | 3.2 | 0.03 | 1.09 | 0.23 | 97 | 1011.2 |
| 20260506050352 | 10 | 242 | 0.0 | 3.2 | 0.03 | 1.09 | 0.23 | 97 | 1011.3 |
| 20260506050119 | 10 | 159 | 0.0 | 3.2 | 0.03 | 1.09 | 0.23 | 98 | 1011.2 |
| 20260506045052 | 10 | 313 | 1.6 | 4.8 | 0.03 | 1.12 | 0.23 | 98 | 1011.4 |
| 20260506044929 | 10 | 313 | 1.6 | 4.8 | 0.03 | 1.12 | 0.23 | 97 | 1011.5 |
| 20260506044721 | 10 | 232 | 1.6 | 4.8 | 0.03 | 1.12 | 0.23 | 97 | 1011.5 |
| 20260506044602 | 10 | 211 | 1.6 | 3.2 | 0.03 | 1.12 | 0.23 | 97 | 1011.4 |
| 20260506044511 | 10 | 211 | 1.6 | 3.2 | 0.03 | 1.12 | 0.23 | 97 | 1011.5 |
| 20260506044342 | 10 | 228 | 1.6 | 3.2 | 0.03 | 1.12 | 0.23 | 97 | 1011.5 |
| 20260506044135 | 10 | 265 | 1.6 | 3.2 | 0.03 | 1.12 | 0.23 | 97 | 1011.5 |
| 20260506044105 | 10 | 229 | 1.6 | 3.2 | 0.03 | 1.12 | 0.23 | 97 | 1011.5 |
| 20260506043957 | 10 | 180 | 1.6 | 1.6 | 0.03 | 1.12 | 0.23 | 97 | 1011.6 |
| 20260506043827 | 10 | 180 | 1.6 | 1.6 | 0.05 | 1.12 | 0.23 | 97 | 1011.5 |
| 20260506043516 | 14 | 254 | 3.2 | 14.5 | 0.05 | 1.24 | 0.99 | 78 | 1012.2 |
| 20260506043457 | 10 | 180 | 1.6 | 1.6 | 0.05 | 1.12 | 0.23 | 97 | 1011.5 |
| 20260506043337 | 10 | 180 | 1.6 | 1.6 | 0.05 | 1.12 | 0.23 | 97 | 1011.3 |
| 20260506043118 | 10 | 180 | 0.0 | 1.6 | 0.05 | 1.12 | 0.23 | 97 | 1011.3 |
| 20260506043027 | 10 | 225 | 0.0 | 0.0 | 0.05 | 1.12 | 0.23 | 97 | 1011.2 |
| 20260506042847 | 10 | 225 | 0.0 | 1.6 | 0.03 | 1.09 | 0.23 | 97 | 1011.3 |
| 20260506042506 | 10 | 225 | 0.0 | 1.6 | 0.03 | 1.09 | 0.23 | 97 | 1011.3 |
| 20260506042409 | 10 | 225 | 0.0 | 1.6 | 0.03 | 1.12 | 0.23 | 97 | 1011.4 |
| 20260506042225 | 10 | 225 | 0.0 | 1.6 | 0.03 | 1.12 | 0.23 | 97 | 1011.5 |
| 20260506042117 | 10 | 225 | 0.0 | 1.6 | 0.03 | 1.12 | 0.23 | 97 | 1011.4 |
| 20260506041929 | 10 | 239 | 0.0 | 1.6 | 0.03 | 1.12 | 0.23 | 97 | 1011.5 |
| 20260506041559 | 10 | 238 | 0.0 | 1.6 | 0.03 | 1.12 | 0.23 | 97 | 1011.6 |
| 20260506041447 | 10 | 142 | 0.0 | 1.6 | 0.03 | 1.12 | 0.23 | 97 | 1011.7 |
| 20260506041247 | 10 | 142 | 0.0 | 1.6 | 0.03 | 1.12 | 0.23 | 97 | 1011.6 |
| 20260506041143 | 10 | 142 | 0.0 | 1.6 | 0.03 | 1.12 | 0.23 | 97 | 1011.6 |
| 20260506041010 | 10 | 139 | 0.0 | 1.6 | 0.03 | 1.12 | 0.23 | 97 | 1011.7 |
| 20260506040932 | 10 | 249 | 0.0 | 0.0 | 0.03 | 1.12 | 0.23 | 97 | 1011.6 |
| 20260506040840 | 10 | 249 | 0.0 | 0.0 | 0.03 | 1.12 | 0.23 | 97 | 1011.7 |
| 20260506040410 | 10 | 249 | 0.0 | 0.0 | 0.03 | 1.12 | 0.23 | 97 | 1011.7 |
| 20260506035930 | 10 | 249 | 0.0 | 0.0 | 0.05 | 1.12 | 0.23 | 97 | 1011.8 |
| 20260506035908 | 10 | 249 | 0.0 | 0.0 | 0.05 | 1.12 | 0.23 | 97 | 1011.7 |
| 20260506035821 | 10 | 249 | 0.0 | 0.0 | 0.05 | 1.12 | 0.23 | 97 | 1011.8 |
| 20260506035728 | 10 | 249 | 0.0 | 0.0 | 0.05 | 1.14 | 0.23 | 97 | 1011.7 |
| 20260506035554 | 10 | 249 | 0.0 | 0.0 | 0.05 | 1.14 | 0.23 | 97 | 1011.8 |
| 20260506035522 | 10 | 249 | 0.0 | 0.0 | 0.05 | 1.14 | 0.23 | 97 | 1011.7 |
| 20260506035440 | 10 | 249 | 0.0 | 1.6 | 0.05 | 1.14 | 0.23 | 97 | 1011.7 |
| 20260506035134 | 10 | 249 | 0.0 | 3.2 | 0.05 | 1.14 | 0.23 | 97 | 1011.8 |
| 20260506035045 | 10 | 249 | 0.0 | 3.2 | 0.05 | 1.14 | 0.23 | 97 | 1011.8 |
| 20260506035005 | 10 | 249 | 0.0 | 3.2 | 0.05 | 1.14 | 0.23 | 97 | 1011.8 |
| 20260506034936 | 10 | 249 | 0.0 | 3.2 | 0.05 | 1.14 | 0.23 | 97 | 1011.8 |
| 20260506034859 | 10 | 249 | 0.0 | 4.8 | 0.05 | 1.14 | 0.23 | 97 | 1011.9 |
| 20260506034750 | 10 | 250 | 1.6 | 4.8 | 0.03 | 1.12 | 0.23 | 97 | 1012.0 |
| 20260506034612 | 10 | 243 | 1.6 | 4.8 | 0.03 | 1.12 | 0.20 | 97 | 1011.9 |
| 20260506034600 | 10 | 244 | 1.6 | 4.8 | 0.03 | 1.12 | 0.20 | 97 | 1011.9 |
| 20260506034412 | 10 | 267 | 1.6 | 4.8 | 0.03 | 1.12 | 0.20 | 97 | 1011.9 |
| 20260506034251 | 10 | 264 | 3.2 | 4.8 | 0.03 | 1.12 | 0.20 | 96 | 1012.0 |
| 20260506034154 | 10 | 251 | 1.6 | 4.8 | 0.03 | 1.12 | 0.20 | 97 | 1011.9 |
| 20260506034054 | 10 | 260 | 1.6 | 4.8 | 0.03 | 1.12 | 0.20 | 97 | 1011.9 |
| 20260506033933 | 10 | 237 | 0.0 | 4.8 | 0.03 | 1.12 | 0.20 | 96 | 1011.9 |
| 20260506033815 | 10 | 239 | 1.6 | 4.8 | 0.03 | 1.12 | 0.20 | 96 | 1012.0 |
| 20260506033634 | 10 | 207 | 1.6 | 9.7 | 0.03 | 1.12 | 0.20 | 96 | 1012.0 |
| 20260506033511 | 10 | 219 | 3.2 | 11.3 | 0.03 | 1.14 | 0.20 | 96 | 1011.9 |
| 20260506033425 | 10 | 216 | 1.6 | 11.3 | 0.03 | 1.14 | 0.20 | 96 | 1012.0 |
| 20260506032617 | 10 | 238 | 6.4 | 11.3 | 0.05 | 1.14 | 0.20 | 96 | 1012.1 |
| 20260506032416 | 10 | 257 | 4.8 | 11.3 | 0.05 | 1.14 | 0.20 | 96 | 1012.1 |
| 20260506032229 | 10 | 248 | 8.0 | 11.3 | 0.05 | 1.14 | 0.20 | 96 | 1012.3 |
| 20260506032139 | 10 | 284 | 8.0 | 11.3 | 0.05 | 1.14 | 0.20 | 96 | 1012.2 |
| 20260506032020 | 10 | 296 | 4.8 | 12.9 | 0.05 | 1.14 | 0.20 | 96 | 1012.3 |
| 20260506031846 | 10 | 304 | 4.8 | 12.9 | 0.05 | 1.14 | 0.20 | 96 | 1012.2 |
| 20260506031712 | 10 | 277 | 6.4 | 12.9 | 0.05 | 1.14 | 0.20 | 96 | 1012.3 |
| 20260506031656 | 10 | 288 | 6.4 | 12.9 | 0.05 | 1.14 | 0.20 | 96 | 1012.3 |
| 20260506031507 | 10 | 313 | 4.8 | 12.9 | 0.05 | 1.14 | 0.20 | 96 | 1012.3 |
| 20260506031337 | 10 | 295 | 6.4 | 12.9 | 0.05 | 1.14 | 0.20 | 96 | 1012.3 |
| 20260506030923 | 10 | 284 | 4.8 | 11.3 | 0.05 | 1.14 | 0.20 | 96 | 1012.3 |
| 20260506030739 | 10 | 313 | 4.8 | 11.3 | 0.03 | 1.12 | 0.18 | 96 | 1012.2 |
| 20260506030618 | 10 | 313 | 8.0 | 11.3 | 0.03 | 1.12 | 0.18 | 96 | 1012.2 |
| 20260506030601 | 10 | 311 | 8.0 | 11.3 | 0.03 | 1.12 | 0.18 | 96 | 1012.1 |
| 20260506030412 | 10 | 282 | 6.4 | 11.3 | 0.03 | 1.12 | 0.18 | 96 | 1012.0 |
| 20260506030236 | 10 | 276 | 3.2 | 8.0 | 0.03 | 1.14 | 0.18 | 96 | 1012.0 |
| 20260506030144 | 10 | 247 | 3.2 | 8.0 | 0.03 | 1.14 | 0.18 | 96 | 1012.0 |
| 20260506025649 | 10 | 215 | 3.2 | 8.0 | 0.03 | 1.14 | 0.18 | 96 | 1011.9 |
| 20260506025522 | 10 | 244 | 3.2 | 8.0 | 0.03 | 1.14 | 0.18 | 96 | 1011.9 |
| 20260506025111 | 10 | 260 | 3.2 | 8.0 | 0.05 | 1.14 | 0.18 | 96 | 1011.8 |
| 20260506024931 | 10 | 248 | 3.2 | 8.0 | 0.05 | 1.14 | 0.18 | 96 | 1011.9 |
| 20260506024843 | 10 | 252 | 4.8 | 8.0 | 0.05 | 1.14 | 0.18 | 96 | 1011.9 |
| 20260506024740 | 10 | 243 | 4.8 | 8.0 | 0.05 | 1.14 | 0.18 | 96 | 1011.9 |
| 20260506024556 | 10 | 237 | 1.6 | 6.4 | 0.05 | 1.14 | 0.18 | 96 | 1011.9 |
| 20260506024352 | 10 | 222 | 3.2 | 4.8 | 0.05 | 1.14 | 0.18 | 96 | 1011.9 |
| 20260506024231 | 10 | 238 | 1.6 | 4.8 | 0.05 | 1.14 | 0.18 | 96 | 1011.9 |
| 20260506024105 | 10 | 225 | 1.6 | 4.8 | 0.05 | 1.14 | 0.18 | 96 | 1011.9 |
| 20260506024019 | 10 | 225 | 3.2 | 4.8 | 0.05 | 1.14 | 0.18 | 96 | 1011.9 |
| 20260506023928 | 10 | 225 | 3.2 | 4.8 | 0.05 | 1.14 | 0.18 | 96 | 1012.0 |
| 20260506023806 | 10 | 219 | 3.2 | 4.8 | 0.05 | 1.14 | 0.18 | 96 | 1011.9 |
| 20260506023608 | 10 | 238 | 3.2 | 4.8 | 0.05 | 1.14 | 0.18 | 96 | 1011.9 |
| 20260506023454 | 10 | 221 | 3.2 | 4.8 | 0.05 | 1.17 | 0.18 | 96 | 1011.8 |
| 20260506023313 | 10 | 255 | 3.2 | 4.8 | 0.05 | 1.17 | 0.18 | 96 | 1011.9 |
| 20260506023214 | 10 | 216 | 3.2 | 4.8 | 0.05 | 1.17 | 0.18 | 96 | 1011.8 |
| 20260506023111 | 10 | 222 | 3.2 | 4.8 | 0.05 | 1.17 | 0.18 | 96 | 1011.9 |
| 20260506022933 | 10 | 207 | 3.2 | 4.8 | 0.03 | 1.14 | 0.15 | 96 | 1011.9 |
| 20260506022746 | 10 | 232 | 3.2 | 4.8 | 0.03 | 1.14 | 0.15 | 96 | 1011.9 |
| 20260506022731 | 10 | 291 | 3.2 | 4.8 | 0.03 | 1.14 | 0.15 | 96 | 1011.9 |
| 20260506022602 | 10 | 260 | 3.2 | 4.8 | 0.05 | 1.14 | 0.15 | 96 | 1011.9 |
| 20260506022432 | 10 | 230 | 1.6 | 4.8 | 0.05 | 1.14 | 0.15 | 96 | 1011.9 |
| 20260506022340 | 10 | 229 | 0.0 | 4.8 | 0.05 | 1.14 | 0.15 | 96 | 1011.8 |
| 20260506022245 | 10 | 223 | 0.0 | 4.8 | 0.05 | 1.14 | 0.15 | 96 | 1011.8 |
| 20260506022151 | 10 | 223 | 3.2 | 6.4 | 0.05 | 1.14 | 0.15 | 96 | 1011.8 |
| 20260506021433 | 10 | 220 | 1.6 | 6.4 | 0.05 | 1.14 | 0.15 | 96 | 1011.8 |
| 20260506021308 | 10 | 220 | 3.2 | 6.4 | 0.05 | 1.14 | 0.15 | 96 | 1011.8 |
| 20260506021228 | 10 | 220 | 3.2 | 6.4 | 0.05 | 1.14 | 0.15 | 96 | 1011.8 |
| 20260506021134 | 10 | 244 | 3.2 | 6.4 | 0.05 | 1.14 | 0.15 | 96 | 1011.7 |
| 20260506021000 | 10 | 228 | 1.6 | 3.2 | 0.05 | 1.14 | 0.15 | 96 | 1011.8 |
| 20260506020758 | 10 | 232 | 1.6 | 3.2 | 0.05 | 1.14 | 0.15 | 96 | 1011.8 |
| 20260506020652 | 10 | 232 | 1.6 | 3.2 | 0.05 | 1.17 | 0.15 | 96 | 1011.7 |
| 20260506015638 | 10 | 217 | 1.6 | 4.8 | 0.05 | 1.17 | 0.15 | 96 | 1011.7 |
| 20260506015454 | 10 | 234 | 1.6 | 4.8 | 0.05 | 1.17 | 0.15 | 96 | 1011.7 |
| 20260506015332 | 10 | 224 | 1.6 | 4.8 | 0.05 | 1.14 | 0.15 | 96 | 1011.8 |
| 20260506015221 | 10 | 224 | 3.2 | 4.8 | 0.05 | 1.14 | 0.15 | 96 | 1011.8 |
| 20260506014832 | 10 | 223 | 3.2 | 4.8 | 0.05 | 1.14 | 0.15 | 96 | 1011.9 |
| 20260506014110 | 10 | 227 | 3.2 | 4.8 | 0.05 | 1.14 | 0.15 | 96 | 1011.9 |
| 20260506013941 | 10 | 238 | 3.2 | 4.8 | 0.05 | 1.14 | 0.15 | 96 | 1012.0 |
| 20260506013815 | 10 | 226 | 3.2 | 4.8 | 0.05 | 1.14 | 0.15 | 96 | 1011.9 |
| 20260506013733 | 10 | 226 | 3.2 | 4.8 | 0.05 | 1.14 | 0.15 | 96 | 1012.0 |
| 20260506013612 | 10 | 235 | 1.6 | 4.8 | 0.05 | 1.14 | 0.15 | 96 | 1012.0 |
| 20260506013443 | 10 | 219 | 3.2 | 4.8 | 0.05 | 1.14 | 0.15 | 96 | 1012.0 |
| 20260506013027 | 10 | 233 | 3.2 | 4.8 | 0.05 | 1.17 | 0.15 | 96 | 1012.0 |
| 20260506012431 | 10 | 225 | 1.6 | 4.8 | 0.05 | 1.17 | 0.15 | 96 | 1012.1 |
| 20260506012400 | 10 | 240 | 1.6 | 4.8 | 0.05 | 1.17 | 0.15 | 96 | 1012.0 |
| 20260506012236 | 10 | 221 | 3.2 | 4.8 | 0.05 | 1.17 | 0.15 | 96 | 1012.0 |
| 20260506012112 | 10 | 239 | 3.2 | 4.8 | 0.05 | 1.17 | 0.15 | 96 | 1012.1 |
| 20260506011917 | 10 | 225 | 3.2 | 4.8 | 0.05 | 1.17 | 0.15 | 96 | 1012.0 |
| 20260506011849 | 10 | 236 | 3.2 | 4.8 | 0.05 | 1.17 | 0.15 | 96 | 1012.0 |
| 20260506011705 | 10 | 221 | 1.6 | 6.4 | 0.05 | 1.14 | 0.15 | 96 | 1012.0 |
| 20260506011511 | 10 | 228 | 1.6 | 6.4 | 0.05 | 1.14 | 0.13 | 96 | 1012.0 |
| 20260506011442 | 10 | 229 | 1.6 | 6.4 | 0.05 | 1.14 | 0.13 | 96 | 1012.0 |
| 20260506011353 | 10 | 257 | 3.2 | 6.4 | 0.05 | 1.14 | 0.13 | 96 | 1012.1 |
| 20260506011257 | 10 | 229 | 3.2 | 6.4 | 0.05 | 1.14 | 0.13 | 96 | 1012.1 |
| 20260506011115 | 10 | 225 | 3.2 | 6.4 | 0.05 | 1.14 | 0.13 | 96 | 1012.1 |
| 20260506010944 | 10 | 223 | 3.2 | 4.8 | 0.05 | 1.14 | 0.13 | 96 | 1012.2 |
| 20260506010758 | 10 | 219 | 3.2 | 4.8 | 0.05 | 1.14 | 0.13 | 96 | 1012.2 |
| 20260506010727 | 10 | 234 | 3.2 | 4.8 | 0.05 | 1.14 | 0.13 | 96 | 1012.3 |
| 20260506010630 | 11 | 224 | 1.6 | 8.0 | 0.05 | 1.14 | 0.13 | 96 | 1012.2 |
| 20260506010142 | 11 | 244 | 3.2 | 8.0 | 0.05 | 1.17 | 0.13 | 96 | 1012.3 |
| 20260506005743 | 11 | 263 | 3.2 | 8.0 | 0.05 | 1.17 | 0.13 | 96 | 1012.3 |
| 20260506005554 | 11 | 211 | 3.2 | 8.0 | 0.05 | 1.17 | 0.13 | 96 | 1012.3 |
| 20260506005524 | 11 | 236 | 3.2 | 8.0 | 0.05 | 1.17 | 0.13 | 96 | 1012.3 |
| 20260506005405 | 11 | 233 | 1.6 | 4.8 | 0.05 | 1.17 | 0.13 | 96 | 1012.4 |
| 20260506005227 | 11 | 222 | 1.6 | 4.8 | 0.05 | 1.17 | 0.13 | 96 | 1012.3 |
| 20260506005105 | 11 | 255 | 1.6 | 4.8 | 0.05 | 1.17 | 0.13 | 96 | 1012.3 |
| 20260506005036 | 11 | 247 | 1.6 | 4.8 | 0.05 | 1.14 | 0.13 | 96 | 1012.4 |
| 20260506004907 | 11 | 237 | 1.6 | 4.8 | 0.05 | 1.14 | 0.10 | 96 | 1012.3 |
| 20260506004739 | 11 | 244 | 1.6 | 4.8 | 0.05 | 1.14 | 0.10 | 96 | 1012.4 |
| 20260506004704 | 11 | 225 | 1.6 | 4.8 | 0.05 | 1.14 | 0.10 | 96 | 1012.4 |
| 20260506004609 | 11 | 238 | 3.2 | 4.8 | 0.05 | 1.14 | 0.10 | 96 | 1012.4 |
| 20260506004448 | 11 | 238 | 3.2 | 4.8 | 0.05 | 1.14 | 0.10 | 96 | 1012.4 |
| 20260506004325 | 11 | 222 | 3.2 | 4.8 | 0.05 | 1.14 | 0.10 | 96 | 1012.4 |
| 20260506004245 | 11 | 231 | 1.6 | 4.8 | 0.05 | 1.14 | 0.10 | 96 | 1012.4 |
| 20260506003725 | 11 | 223 | 3.2 | 4.8 | 0.05 | 1.14 | 0.10 | 96 | 1012.4 |
| 20260506003709 | 11 | 223 | 3.2 | 4.8 | 0.05 | 1.14 | 0.10 | 96 | 1012.5 |
| 20260506003554 | 11 | 217 | 3.2 | 6.4 | 0.05 | 1.17 | 0.10 | 96 | 1012.5 |
| 20260506003415 | 11 | 221 | 1.6 | 6.4 | 0.03 | 1.14 | 0.10 | 96 | 1012.5 |
| 20260506003048 | 11 | 216 | 4.8 | 12.9 | 0.03 | 1.14 | 0.08 | 96 | 1012.5 |
| 20260506002959 | 11 | 216 | 4.8 | 12.9 | 0.05 | 1.14 | 0.08 | 96 | 1012.5 |
| 20260506002855 | 11 | 216 | 4.8 | 14.5 | 0.05 | 1.14 | 0.08 | 96 | 1012.6 |
| 20260506002746 | 11 | 236 | 3.2 | 14.5 | 0.05 | 1.14 | 0.08 | 96 | 1012.6 |
| 20260506002610 | 11 | 239 | 4.8 | 14.5 | 0.05 | 1.14 | 0.08 | 96 | 1012.6 |
| 20260506002506 | 11 | 247 | 4.8 | 14.5 | 0.05 | 1.14 | 0.08 | 96 | 1012.6 |
| 20260506002024 | 11 | 265 | 4.8 | 12.9 | 0.05 | 1.14 | 0.08 | 96 | 1012.7 |
| 20260506001838 | 11 | 248 | 4.8 | 9.7 | 0.05 | 1.14 | 0.08 | 96 | 1012.7 |
| 20260506001440 | 11 | 246 | 3.2 | 6.4 | 0.05 | 1.14 | 0.08 | 96 | 1012.6 |
| 20260506000929 | 11 | 232 | 3.2 | 6.4 | 0.05 | 1.14 | 0.08 | 96 | 1012.7 |
| 20260506000839 | 11 | 244 | 3.2 | 6.4 | 0.05 | 1.14 | 0.08 | 96 | 1012.7 |
| 20260506000702 | 11 | 236 | 4.8 | 6.4 | 0.05 | 1.14 | 0.08 | 96 | 1012.7 |
| 20260506000510 | 11 | 264 | 3.2 | 6.4 | 0.05 | 1.14 | 0.08 | 96 | 1012.8 |
| 20260506000457 | 11 | 282 | 3.2 | 6.4 | 0.05 | 1.14 | 0.08 | 96 | 1012.8 |
| 20260506000330 | 11 | 222 | 3.2 | 6.4 | 0.05 | 1.17 | 0.08 | 96 | 1012.6 |
| 20260506000153 | 11 | 236 | 3.2 | 6.4 | 0.05 | 1.17 | 0.08 | 96 | 1012.7 |
| 20260506000057 | 11 | 277 | 3.2 | 6.4 | 0.05 | 1.17 | 0.08 | 96 | 1012.8 |
| 20260505235630 | 11 | 222 | 3.2 | 4.8 | 0.05 | 1.14 | 0.08 | 96 | 1012.7 |
| 20260505235342 | 11 | 228 | 3.2 | 4.8 | 0.05 | 1.14 | 0.05 | 96 | 1012.8 |
| 20260505235329 | 11 | 229 | 3.2 | 4.8 | 0.05 | 1.14 | 0.05 | 96 | 1012.8 |
| 20260505235210 | 11 | 281 | 3.2 | 4.8 | 0.05 | 1.14 | 0.05 | 96 | 1012.8 |
| 20260505235040 | 11 | 235 | 3.2 | 4.8 | 0.05 | 1.14 | 0.05 | 96 | 1012.9 |
| 20260505234856 | 11 | 231 | 3.2 | 4.8 | 0.05 | 1.14 | 0.05 | 96 | 1012.9 |
| 20260505234810 | 11 | 225 | 1.6 | 4.8 | 0.05 | 1.14 | 0.05 | 96 | 1012.8 |
| 20260505234637 | 11 | 215 | 1.6 | 3.2 | 0.05 | 1.14 | 0.05 | 96 | 1012.8 |
| 20260505234512 | 11 | 222 | 1.6 | 3.2 | 0.05 | 1.14 | 0.05 | 96 | 1012.8 |
| 20260505234452 | 11 | 222 | 0.0 | 3.2 | 0.05 | 1.14 | 0.05 | 96 | 1012.8 |
| 20260505234337 | 11 | 223 | 0.0 | 3.2 | 0.05 | 1.14 | 0.05 | 95 | 1012.8 |
| 20260505234228 | 11 | 223 | 1.6 | 3.2 | 0.05 | 1.14 | 0.05 | 96 | 1012.7 |
| 20260505233528 | 11 | 223 | 0.0 | 3.2 | 0.05 | 1.14 | 0.05 | 96 | 1012.7 |
| 20260505233304 | 11 | 223 | 1.6 | 3.2 | 0.05 | 1.17 | 0.05 | 96 | 1012.7 |
| 20260505233252 | 11 | 223 | 1.6 | 3.2 | 0.05 | 1.17 | 0.05 | 96 | 1012.8 |
| 20260505233149 | 11 | 234 | 1.6 | 3.2 | 0.05 | 1.17 | 0.05 | 95 | 1012.8 |
| 20260505233024 | 11 | 236 | 1.6 | 3.2 | 0.05 | 1.17 | 0.05 | 95 | 1012.8 |
| 20260505232837 | 11 | 252 | 1.6 | 3.2 | 0.05 | 1.17 | 0.05 | 95 | 1012.7 |
| 20260505232414 | 11 | 226 | 1.6 | 3.2 | 0.05 | 1.14 | 0.05 | 95 | 1012.7 |
| 20260505232138 | 11 | 226 | 1.6 | 3.2 | 0.05 | 1.14 | 0.05 | 95 | 1012.8 |
| 20260505232122 | 11 | 221 | 1.6 | 3.2 | 0.05 | 1.14 | 0.05 | 95 | 1012.7 |
| 20260505232006 | 11 | 219 | 1.6 | 3.2 | 0.05 | 1.14 | 0.05 | 95 | 1012.6 |
| 20260505231740 | 11 | 219 | 0.0 | 4.8 | 0.05 | 1.14 | 0.05 | 95 | 1012.7 |
| 20260505231638 | 11 | 219 | 1.6 | 4.8 | 0.05 | 1.14 | 0.05 | 95 | 1012.6 |
| 20260505231550 | 11 | 219 | 1.6 | 4.8 | 0.05 | 1.14 | 0.05 | 95 | 1012.7 |
| 20260505231330 | 11 | 219 | 3.2 | 4.8 | 0.05 | 1.14 | 0.05 | 95 | 1012.7 |
| 20260505231306 | 11 | 219 | 3.2 | 4.8 | 0.05 | 1.14 | 0.05 | 95 | 1012.7 |
| 20260505231206 | 11 | 219 | 3.2 | 4.8 | 0.05 | 1.14 | 0.05 | 95 | 1012.7 |
| 20260505231007 | 11 | 226 | 1.6 | 4.8 | 0.05 | 1.17 | 0.05 | 95 | 1012.6 |
| 20260505230942 | 11 | 239 | 1.6 | 4.8 | 0.05 | 1.17 | 0.05 | 95 | 1012.7 |
| 20260505230836 | 11 | 209 | 1.6 | 4.8 | 0.05 | 1.17 | 0.05 | 95 | 1012.8 |
| 20260505230711 | 11 | 202 | 3.2 | 4.8 | 0.05 | 1.17 | 0.05 | 95 | 1012.8 |
| 20260505230607 | 11 | 226 | 3.2 | 4.8 | 0.05 | 1.17 | 0.05 | 95 | 1012.8 |
| 20260505230538 | 11 | 236 | 3.2 | 4.8 | 0.05 | 1.17 | 0.05 | 95 | 1012.9 |
| 20260505230006 | 11 | 263 | 3.2 | 4.8 | 0.05 | 1.17 | 0.05 | 95 | 1012.9 |
| 20260505225937 | 11 | 233 | 1.6 | 4.8 | 0.05 | 1.17 | 0.05 | 95 | 1012.9 |
| 20260505225509 | 11 | 221 | 1.6 | 4.8 | 0.05 | 1.14 | 0.03 | 95 | 1012.8 |
| 20260505225305 | 11 | 221 | 3.2 | 4.8 | 0.05 | 1.14 | 0.03 | 95 | 1012.8 |
| 20260505225240 | 11 | 221 | 3.2 | 4.8 | 0.05 | 1.14 | 0.03 | 95 | 1012.9 |
| 20260505225141 | 11 | 221 | 3.2 | 4.8 | 0.05 | 1.14 | 0.03 | 95 | 1012.7 |
| 20260505224923 | 11 | 227 | 1.6 | 4.8 | 0.05 | 1.14 | 0.03 | 95 | 1012.8 |
| 20260505224854 | 11 | 227 | 3.2 | 4.8 | 0.05 | 1.14 | 0.03 | 95 | 1012.9 |
| 20260505224733 | 11 | 231 | 1.6 | 3.2 | 0.05 | 1.14 | 0.03 | 95 | 1012.9 |
| 20260505224615 | 11 | 223 | 3.2 | 3.2 | 0.05 | 1.14 | 0.03 | 95 | 1012.9 |
| 20260505224449 | 11 | 229 | 1.6 | 3.2 | 0.05 | 1.17 | 0.03 | 95 | 1012.9 |
| 20260505224414 | 11 | 229 | 1.6 | 3.2 | 0.05 | 1.17 | 0.03 | 95 | 1012.8 |
| 20260505224305 | 11 | 229 | 1.6 | 3.2 | 0.05 | 1.17 | 0.03 | 95 | 1012.8 |
| 20260505224140 | 11 | 229 | 1.6 | 3.2 | 0.05 | 1.17 | 0.03 | 94 | 1012.9 |
| 20260505224118 | 11 | 229 | 1.6 | 3.2 | 0.05 | 1.17 | 0.03 | 94 | 1012.8 |
| 20260505223652 | 11 | 228 | 1.6 | 3.2 | 0.05 | 1.17 | 0.03 | 94 | 1012.9 |
| 20260505223554 | 11 | 246 | 1.6 | 3.2 | 0.05 | 1.17 | 0.03 | 94 | 1012.9 |
| 20260505223158 | 11 | 225 | 1.6 | 3.2 | 0.05 | 1.17 | 0.03 | 94 | 1012.9 |
| 20260505223021 | 11 | 225 | 0.0 | 3.2 | 0.05 | 1.17 | 0.03 | 94 | 1012.9 |
| 20260505222330 | 11 | 225 | 0.0 | 3.2 | 0.05 | 1.14 | 0.00 | 94 | 1012.9 |
| 20260505222220 | 12 | 225 | 1.6 | 3.2 | 0.05 | 1.14 | 0.00 | 94 | 1012.9 |
| 20260505222141 | 12 | 225 | 1.6 | 3.2 | 0.05 | 1.14 | 0.00 | 94 | 1013.0 |
| 20260505222031 | 12 | 236 | 1.6 | 3.2 | 0.05 | 1.17 | 0.00 | 94 | 1012.9 |
| 20260505221916 | 12 | 239 | 0.0 | 3.2 | 0.05 | 1.17 | 0.00 | 94 | 1013.0 |
| 20260505221859 | 12 | 239 | 0.0 | 3.2 | 0.05 | 1.17 | 0.00 | 94 | 1013.0 |
| 20260505221416 | 12 | 238 | 1.6 | 4.8 | 0.05 | 1.17 | 0.00 | 94 | 1012.9 |
| 20260505221234 | 12 | 248 | 1.6 | 4.8 | 0.05 | 1.17 | 0.00 | 93 | 1012.9 |
| 20260505221206 | 12 | 234 | 1.6 | 4.8 | 0.05 | 1.17 | 0.00 | 93 | 1012.9 |
| 20260505221056 | 12 | 224 | 3.2 | 6.4 | 0.05 | 1.17 | 0.00 | 93 | 1013.0 |
| 20260505220800 | 12 | 251 | 3.2 | 6.4 | 0.05 | 1.17 | 0.00 | 93 | 1012.9 |
| 20260505220723 | 12 | 221 | 3.2 | 6.4 | 0.05 | 1.17 | 0.00 | 93 | 1013.0 |
| 20260505220618 | 12 | 223 | 3.2 | 6.4 | 0.05 | 1.17 | 0.00 | 93 | 1013.0 |
| 20260505220447 | 12 | 219 | 3.2 | 6.4 | 0.05 | 1.17 | 0.00 | 93 | 1013.0 |
| 20260505220300 | 12 | 219 | 3.2 | 6.4 | 0.05 | 1.17 | 1.17 | 93 | 1013.0 |
| 20260505220240 | 12 | 222 | 3.2 | 6.4 | 0.05 | 1.17 | 1.17 | 93 | 1013.0 |
| 20260505220104 | 12 | 223 | 3.2 | 4.8 | 0.05 | 1.17 | 1.17 | 93 | 1013.0 |
| 20260505215828 | 12 | 229 | 0.0 | 3.2 | 0.05 | 1.17 | 1.17 | 93 | 1013.1 |
| 20260505215455 | 12 | 221 | 0.0 | 3.2 | 0.05 | 1.17 | 1.17 | 93 | 1013.1 |
| 20260505215353 | 12 | 221 | 1.6 | 3.2 | 0.05 | 1.17 | 1.14 | 93 | 1013.0 |
| 20260505215150 | 12 | 223 | 0.0 | 3.2 | 0.05 | 1.17 | 1.14 | 93 | 1013.1 |
| 20260505215125 | 12 | 223 | 0.0 | 1.6 | 0.05 | 1.17 | 1.14 | 93 | 1013.1 |
| 20260505215032 | 12 | 242 | 0.0 | 0.0 | 0.05 | 1.17 | 1.14 | 93 | 1013.0 |
| 20260505214841 | 12 | 242 | 0.0 | 0.0 | 0.05 | 1.17 | 1.14 | 93 | 1013.0 |
| 20260505214821 | 12 | 242 | 0.0 | 0.0 | 0.05 | 1.17 | 1.14 | 93 | 1013.0 |
| 20260505214757 | 12 | 242 | 0.0 | 0.0 | 0.05 | 1.17 | 1.14 | 93 | 1013.1 |
| 20260505214655 | 12 | 242 | 0.0 | 0.0 | 0.05 | 1.17 | 1.14 | 93 | 1013.1 |
| 20260505214605 | 12 | 242 | 0.0 | 0.0 | 0.05 | 1.17 | 1.14 | 93 | 1013.0 |
| 20260505214206 | 12 | 242 | 0.0 | 0.0 | 0.05 | 1.17 | 1.14 | 93 | 1013.1 |
| 20260505214114 | 12 | 242 | 0.0 | 0.0 | 0.05 | 1.17 | 1.14 | 93 | 1013.0 |
| 20260505214050 | 12 | 242 | 0.0 | 0.0 | 0.05 | 1.17 | 1.14 | 93 | 1013.2 |
| 20260505214010 | 12 | 242 | 0.0 | 0.0 | 0.05 | 1.17 | 1.14 | 93 | 1013.2 |
| 20260505213834 | 12 | 242 | 0.0 | 0.0 | 0.05 | 1.17 | 1.14 | 92 | 1013.2 |
| 20260505213804 | 12 | 242 | 0.0 | 0.0 | 0.05 | 1.17 | 1.14 | 92 | 1013.2 |
| 20260505213606 | 12 | 242 | 0.0 | 0.0 | 0.05 | 1.17 | 1.14 | 92 | 1013.2 |
| 20260505213430 | 12 | 242 | 0.0 | 0.0 | 0.05 | 1.17 | 1.14 | 92 | 1013.2 |
| 20260505213403 | 12 | 242 | 0.0 | 0.0 | 0.05 | 1.17 | 1.14 | 92 | 1013.2 |
| 20260505213337 | 12 | 242 | 0.0 | 0.0 | 0.05 | 1.17 | 1.12 | 92 | 1013.3 |
| 20260505213214 | 12 | 242 | 0.0 | 1.6 | 0.05 | 1.17 | 1.12 | 92 | 1013.3 |
| 20260505213124 | 12 | 242 | 0.0 | 1.6 | 0.05 | 1.17 | 1.12 | 92 | 1013.3 |
| 20260505213039 | 12 | 242 | 0.0 | 3.2 | 0.05 | 1.17 | 1.12 | 92 | 1013.3 |
| 20260505212952 | 12 | 242 | 0.0 | 3.2 | 0.05 | 1.17 | 1.12 | 92 | 1013.2 |
| 20260505212919 | 12 | 242 | 0.0 | 3.2 | 0.05 | 1.17 | 1.12 | 92 | 1013.2 |
| 20260505212857 | 12 | 242 | 0.0 | 3.2 | 0.05 | 1.17 | 1.12 | 92 | 1013.3 |
| 20260505212420 | 12 | 236 | 0.0 | 3.2 | 0.05 | 1.17 | 1.12 | 92 | 1013.3 |
| 20260505212259 | 12 | 231 | 0.0 | 0.0 | 0.05 | 1.17 | 1.12 | 92 | 1013.3 |
| 20260505211909 | 12 | 231 | 0.0 | 0.0 | 0.05 | 1.17 | 1.12 | 91 | 1013.3 |
| 20260505211547 | 12 | 231 | 0.0 | 0.0 | 0.05 | 1.17 | 1.12 | 91 | 1013.3 |
| 20260505211435 | 12 | 231 | 0.0 | 0.0 | 0.05 | 1.17 | 1.12 | 91 | 1013.3 |
| 20260505211053 | 12 | 231 | 0.0 | 0.0 | 0.05 | 1.17 | 1.12 | 91 | 1013.3 |
| 20260505211016 | 12 | 231 | 0.0 | 0.0 | 0.05 | 1.17 | 1.09 | 91 | 1013.3 |
| 20260505210950 | 12 | 231 | 0.0 | 1.6 | 0.05 | 1.17 | 1.09 | 91 | 1013.4 |
| 20260505210854 | 12 | 231 | 0.0 | 3.2 | 0.05 | 1.17 | 1.09 | 91 | 1013.2 |
| 20260505210807 | 12 | 231 | 0.0 | 3.2 | 0.05 | 1.17 | 1.09 | 91 | 1013.2 |
| 20260505210720 | 12 | 231 | 0.0 | 3.2 | 0.05 | 1.17 | 1.09 | 91 | 1013.2 |
| 20260505210619 | 12 | 231 | 1.6 | 3.2 | 0.05 | 1.17 | 1.09 | 91 | 1013.2 |
| 20260505205913 | 12 | 215 | 0.0 | 0.0 | 0.05 | 1.17 | 1.09 | 91 | 1013.2 |
| 20260505205612 | 12 | 215 | 0.0 | 0.0 | 0.05 | 1.17 | 1.09 | 90 | 1013.2 |
| 20260505205207 | 12 | 215 | 0.0 | 0.0 | 0.05 | 1.17 | 1.09 | 90 | 1013.0 |
| 20260505205125 | 12 | 215 | 0.0 | 0.0 | 0.05 | 1.17 | 1.09 | 90 | 1013.1 |
| 20260505205056 | 12 | 215 | 0.0 | 0.0 | 0.05 | 1.17 | 1.09 | 90 | 1013.2 |
| 20260505204949 | 12 | 215 | 0.0 | 0.0 | 0.05 | 1.19 | 1.09 | 90 | 1013.1 |
| 20260505204909 | 12 | 215 | 0.0 | 0.0 | 0.05 | 1.19 | 1.09 | 90 | 1013.1 |
| 20260505204606 | 12 | 215 | 0.0 | 0.0 | 0.05 | 1.19 | 1.09 | 90 | 1013.2 |
| 20260505204502 | 12 | 215 | 0.0 | 0.0 | 0.05 | 1.17 | 1.09 | 90 | 1013.1 |
| 20260505204147 | 12 | 215 | 0.0 | 0.0 | 0.05 | 1.17 | 1.09 | 90 | 1013.1 |
| 20260505204041 | 12 | 215 | 0.0 | 0.0 | 0.05 | 1.17 | 1.09 | 90 | 1013.1 |
| 20260505203741 | 12 | 215 | 0.0 | 0.0 | 0.05 | 1.17 | 1.09 | 90 | 1013.0 |
| 20260505203702 | 12 | 215 | 0.0 | 0.0 | 0.05 | 1.17 | 1.09 | 90 | 1013.0 |
| 20260505203537 | 12 | 215 | 0.0 | 0.0 | 0.05 | 1.17 | 1.09 | 89 | 1013.0 |
| 20260505203521 | 12 | 215 | 0.0 | 0.0 | 0.05 | 1.17 | 1.09 | 89 | 1012.9 |
| 20260505203158 | 12 | 215 | 0.0 | 1.6 | 0.05 | 1.19 | 1.09 | 89 | 1013.0 |
| 20260505203056 | 12 | 215 | 0.0 | 1.6 | 0.05 | 1.19 | 1.09 | 89 | 1013.0 |
| 20260505202649 | 12 | 215 | 0.0 | 4.8 | 0.05 | 1.19 | 1.09 | 89 | 1012.9 |
| 20260505202636 | 12 | 215 | 0.0 | 4.8 | 0.05 | 1.19 | 1.09 | 89 | 1012.9 |
| 20260505202545 | 12 | 221 | 0.0 | 4.8 | 0.05 | 1.19 | 1.09 | 89 | 1012.9 |
| 20260505202434 | 12 | 221 | 0.0 | 4.8 | 0.05 | 1.19 | 1.09 | 89 | 1012.9 |
| 20260505202349 | 12 | 221 | 1.6 | 4.8 | 0.05 | 1.17 | 1.09 | 89 | 1013.0 |
| 20260505202323 | 12 | 221 | 1.6 | 4.8 | 0.05 | 1.17 | 1.07 | 89 | 1012.8 |
| 20260505202220 | 12 | 245 | 0.0 | 1.6 | 0.05 | 1.17 | 1.07 | 89 | 1012.8 |
| 20260505202107 | 12 | 220 | 0.0 | 1.6 | 0.05 | 1.17 | 1.07 | 89 | 1012.8 |
| 20260505201743 | 12 | 220 | 0.0 | 1.6 | 0.05 | 1.19 | 1.07 | 88 | 1012.7 |
| 20260505201647 | 12 | 220 | 0.0 | 1.6 | 0.05 | 1.19 | 1.07 | 89 | 1012.7 |
| 20260505201536 | 12 | 233 | 0.0 | 3.2 | 0.05 | 1.19 | 1.07 | 89 | 1012.8 |
| 20260505201426 | 12 | 233 | 0.0 | 3.2 | 0.05 | 1.19 | 1.07 | 88 | 1012.8 |
| 20260505201335 | 12 | 233 | 0.0 | 4.8 | 0.05 | 1.19 | 1.07 | 88 | 1012.6 |
| 20260505201319 | 12 | 233 | 0.0 | 4.8 | 0.05 | 1.19 | 1.07 | 88 | 1012.7 |
| 20260505201251 | 12 | 233 | 0.0 | 4.8 | 0.05 | 1.19 | 1.07 | 88 | 1012.7 |
| 20260505201144 | 12 | 233 | 0.0 | 4.8 | 0.05 | 1.19 | 1.07 | 88 | 1012.6 |
| 20260505201043 | 12 | 234 | 0.0 | 4.8 | 0.05 | 1.19 | 1.07 | 88 | 1012.6 |
| 20260505201027 | 12 | 234 | 1.6 | 4.8 | 0.05 | 1.19 | 1.07 | 88 | 1012.6 |
| 20260505200914 | 13 | 234 | 0.0 | 4.8 | 0.05 | 1.19 | 1.07 | 88 | 1012.5 |
| 20260505200741 | 13 | 219 | 0.0 | 0.0 | 0.05 | 1.19 | 1.07 | 87 | 1012.5 |
| 20260505200721 | 13 | 219 | 0.0 | 0.0 | 0.05 | 1.22 | 1.07 | 87 | 1012.6 |
| 20260505200646 | 13 | 219 | 0.0 | 1.6 | 0.05 | 1.19 | 1.07 | 87 | 1012.6 |
| 20260505200233 | 13 | 219 | 0.0 | 1.6 | 0.05 | 1.19 | 1.04 | 87 | 1012.6 |
| 20260505200121 | 13 | 219 | 0.0 | 1.6 | 0.05 | 1.19 | 1.04 | 87 | 1012.4 |
| 20260505200032 | 13 | 219 | 0.0 | 1.6 | 0.05 | 1.19 | 1.04 | 86 | 1012.4 |
| 20260505200008 | 13 | 212 | 0.0 | 0.0 | 0.05 | 1.19 | 1.04 | 86 | 1012.4 |
| 20260505195644 | 13 | 212 | 0.0 | 3.2 | 0.05 | 1.19 | 1.04 | 86 | 1012.4 |
| 20260505195035 | 13 | 212 | 0.0 | 3.2 | 0.05 | 1.22 | 1.04 | 86 | 1012.3 |
| 20260505194955 | 13 | 212 | 0.0 | 3.2 | 0.05 | 1.22 | 1.04 | 86 | 1012.3 |
| 20260505194653 | 13 | 212 | 1.6 | 3.2 | 0.05 | 1.22 | 1.04 | 86 | 1012.3 |
| 20260505194527 | 13 | 212 | 0.0 | 3.2 | 0.05 | 1.22 | 1.04 | 86 | 1012.3 |
| 20260505194203 | 13 | 200 | 0.0 | 3.2 | 0.05 | 1.22 | 1.04 | 85 | 1012.3 |
| 20260505194107 | 13 | 200 | 0.0 | 3.2 | 0.05 | 1.19 | 1.04 | 85 | 1012.3 |
| 20260505193958 | 13 | 200 | 0.0 | 3.2 | 0.05 | 1.19 | 1.02 | 85 | 1012.3 |
| 20260505193021 | 13 | 239 | 0.0 | 0.0 | 0.05 | 1.22 | 1.02 | 84 | 1012.3 |
| 20260505193012 | 13 | 239 | 0.0 | 0.0 | 0.05 | 1.22 | 1.02 | 84 | 1012.3 |
| 20260505192906 | 13 | 239 | 0.0 | 0.0 | 0.05 | 1.22 | 1.02 | 84 | 1012.3 |
| 20260505192756 | 13 | 239 | 0.0 | 0.0 | 0.05 | 1.22 | 1.02 | 84 | 1012.3 |
| 20260505192710 | 13 | 239 | 0.0 | 0.0 | 0.05 | 1.22 | 1.02 | 84 | 1012.2 |
| 20260505192352 | 13 | 239 | 0.0 | 0.0 | 0.05 | 1.22 | 1.02 | 83 | 1012.3 |
| 20260505192311 | 13 | 239 | 0.0 | 0.0 | 0.05 | 1.22 | 1.02 | 83 | 1012.3 |
| 20260505192254 | 13 | 239 | 0.0 | 0.0 | 0.05 | 1.22 | 1.02 | 83 | 1012.2 |
| 20260505191843 | 13 | 239 | 0.0 | 4.8 | 0.05 | 1.22 | 1.02 | 83 | 1012.3 |
| 20260505191531 | 13 | 239 | 0.0 | 11.3 | 0.05 | 1.22 | 1.02 | 82 | 1012.2 |
| 20260505191416 | 13 | 239 | 0.0 | 12.9 | 0.05 | 1.22 | 0.99 | 82 | 1012.2 |
| 20260505191331 | 13 | 239 | 3.2 | 12.9 | 0.05 | 1.22 | 0.99 | 82 | 1012.2 |
| 20260505191307 | 13 | 239 | 3.2 | 12.9 | 0.05 | 1.22 | 0.99 | 82 | 1012.1 |
| 20260505191156 | 13 | 235 | 3.2 | 12.9 | 0.05 | 1.22 | 0.99 | 82 | 1012.2 |
| 20260505190709 | 13 | 223 | 6.4 | 12.9 | 0.05 | 1.22 | 0.99 | 81 | 1012.2 |
| 20260505190642 | 13 | 255 | 4.8 | 12.9 | 0.05 | 1.22 | 0.99 | 81 | 1012.2 |
| 20260505190451 | 13 | 221 | 4.8 | 11.3 | 0.05 | 1.22 | 0.99 | 81 | 1012.1 |
| 20260505190314 | 13 | 210 | 3.2 | 11.3 | 0.05 | 1.22 | 0.99 | 81 | 1012.2 |
| 20260505190243 | 13 | 238 | 3.2 | 11.3 | 0.05 | 1.22 | 0.99 | 81 | 1012.1 |
| 20260505190136 | 13 | 223 | 4.8 | 11.3 | 0.05 | 1.22 | 0.99 | 81 | 1012.1 |
| 20260505185947 | 14 | 230 | 6.4 | 11.3 | 0.05 | 1.22 | 0.99 | 80 | 1012.1 |
| 20260505185825 | 14 | 225 | 6.4 | 11.3 | 0.05 | 1.24 | 0.99 | 80 | 1012.1 |
| 20260505185801 | 14 | 267 | 6.4 | 11.3 | 0.05 | 1.24 | 0.99 | 80 | 1012.1 |
| 20260505185227 | 14 | 232 | 3.2 | 6.4 | 0.05 | 1.24 | 0.99 | 79 | 1012.2 |
| 20260505185141 | 14 | 245 | 3.2 | 6.4 | 0.05 | 1.24 | 0.99 | 79 | 1012.2 |
| 20260505184702 | 14 | 229 | 4.8 | 14.5 | 0.05 | 1.24 | 0.99 | 79 | 1012.2 |
| 20260505184538 | 14 | 232 | 4.8 | 14.5 | 0.05 | 1.24 | 0.99 | 78 | 1012.2 |
| 20260505184139 | 14 | 243 | 4.8 | 19.3 | 0.05 | 1.24 | 0.99 | 78 | 1012.2 |
| 20260505184006 | 14 | 232 | 6.4 | 19.3 | 0.05 | 1.22 | 0.99 | 77 | 1012.2 |
| 20260505183922 | 14 | 250 | 6.4 | 19.3 | 0.05 | 1.22 | 0.99 | 77 | 1012.3 |
| 20260505183822 | 14 | 259 | 8.0 | 19.3 | 0.05 | 1.22 | 0.99 | 77 | 1012.2 |
| 20260505183639 | 14 | 255 | 9.7 | 19.3 | 0.05 | 1.24 | 0.99 | 78 | 1012.2 |
| 20260505183453 | 14 | 222 | 9.7 | 19.3 | 0.05 | 1.24 | 0.99 | 78 | 1012.3 |
| 20260505183434 | 14 | 272 | 8.0 | 19.3 | 0.05 | 1.24 | 0.99 | 78 | 1012.2 |
| 20260505183247 | 14 | 280 | 9.7 | 24.1 | 0.05 | 1.24 | 0.99 | 77 | 1012.3 |
| 20260505183105 | 14 | 275 | 8.0 | 24.1 | 0.05 | 1.24 | 0.99 | 77 | 1012.3 |
| 20260505182716 | 14 | 238 | 8.0 | 24.1 | 0.05 | 1.24 | 0.99 | 77 | 1012.3 |
| 20260505182531 | 15 | 217 | 11.3 | 24.1 | 0.05 | 1.24 | 0.99 | 77 | 1012.3 |
| 20260505182355 | 15 | 240 | 14.5 | 24.1 | 0.05 | 1.24 | 0.99 | 76 | 1012.2 |
| 20260505182332 | 15 | 246 | 14.5 | 24.1 | 0.05 | 1.24 | 0.99 | 76 | 1012.3 |
| 20260505182151 | 15 | 236 | 12.9 | 29.0 | 0.05 | 1.24 | 0.99 | 75 | 1012.3 |
| 20260505182006 | 15 | 261 | 12.9 | 29.0 | 0.05 | 1.24 | 0.99 | 75 | 1012.2 |
| 20260505181924 | 15 | 252 | 12.9 | 29.0 | 0.05 | 1.27 | 0.99 | 74 | 1012.2 |
| 20260505181800 | 15 | 254 | 11.3 | 29.0 | 0.05 | 1.27 | 0.99 | 75 | 1012.2 |
| 20260505181623 | 15 | 244 | 8.0 | 29.0 | 0.05 | 1.27 | 0.99 | 75 | 1012.2 |
| 20260505181305 | 15 | 275 | 16.1 | 29.0 | 0.05 | 1.24 | 0.97 | 74 | 1012.2 |
| 20260505181119 | 15 | 257 | 14.5 | 27.4 | 0.05 | 1.24 | 0.97 | 73 | 1012.2 |
| 20260505180936 | 15 | 254 | 12.9 | 27.4 | 0.05 | 1.24 | 0.97 | 74 | 1012.2 |
| 20260505180857 | 15 | 237 | 16.1 | 27.4 | 0.05 | 1.24 | 0.97 | 74 | 1012.3 |
| 20260505180115 | 15 | 246 | 14.5 | 27.4 | 0.05 | 1.24 | 0.97 | 73 | 1012.1 |
| 20260505180039 | 15 | 244 | 14.5 | 27.4 | 0.05 | 1.24 | 0.97 | 72 | 1012.1 |
| 20260505175902 | 15 | 264 | 12.9 | 27.4 | 0.05 | 1.24 | 0.97 | 72 | 1012.1 |
| 20260505175707 | 15 | 238 | 16.1 | 27.4 | 0.05 | 1.27 | 0.97 | 72 | 1012.1 |
| 20260505175641 | 15 | 225 | 9.7 | 27.4 | 0.05 | 1.27 | 0.97 | 72 | 1012.1 |
| 20260505175524 | 15 | 267 | 9.7 | 29.0 | 0.05 | 1.27 | 0.97 | 75 | 1012.1 |
| 20260505175339 | 15 | 242 | 9.7 | 29.0 | 0.05 | 1.27 | 0.97 | 75 | 1012.2 |
| 20260505175218 | 15 | 257 | 14.5 | 29.0 | 0.05 | 1.27 | 0.97 | 75 | 1012.2 |
| 20260505175145 | 15 | 307 | 14.5 | 29.0 | 0.05 | 1.27 | 0.97 | 75 | 1012.1 |
| 20260505175003 | 15 | 251 | 17.7 | 29.0 | 0.05 | 1.24 | 0.97 | 74 | 1012.1 |
| 20260505174823 | 15 | 259 | 16.1 | 29.0 | 0.05 | 1.24 | 0.94 | 73 | 1012.1 |
| 20260505174750 | 15 | 257 | 12.9 | 29.0 | 0.05 | 1.24 | 0.94 | 74 | 1012.1 |
| 20260505174616 | 15 | 252 | 12.9 | 25.7 | 0.05 | 1.24 | 0.94 | 74 | 1012.1 |
| 20260505174428 | 15 | 266 | 8.0 | 24.1 | 0.05 | 1.24 | 0.94 | 75 | 1012.0 |
| 20260505174309 | 15 | 231 | 9.7 | 24.1 | 0.05 | 1.24 | 0.94 | 75 | 1012.2 |
| 20260505174232 | 15 | 261 | 9.7 | 24.1 | 0.05 | 1.27 | 0.94 | 75 | 1012.0 |
| 20260505174052 | 15 | 238 | 12.9 | 24.1 | 0.05 | 1.27 | 0.94 | 74 | 1012.1 |
| 20260505173613 | 15 | 234 | 8.0 | 27.4 | 0.05 | 1.27 | 0.94 | 73 | 1012.0 |
| 20260505173433 | 15 | 234 | 12.9 | 27.4 | 0.05 | 1.27 | 0.94 | 73 | 1012.1 |
| 20260505173327 | 15 | 262 | 9.7 | 27.4 | 0.05 | 1.27 | 0.94 | 73 | 1012.1 |
| 20260505173242 | 15 | 232 | 9.7 | 27.4 | 0.05 | 1.27 | 0.94 | 73 | 1012.1 |
| 20260505172822 | 15 | 246 | 12.9 | 27.4 | 0.05 | 1.27 | 0.94 | 72 | 1012.0 |
| 20260505172805 | 15 | 248 | 12.9 | 27.4 | 0.05 | 1.27 | 0.94 | 72 | 1012.2 |
| 20260505172626 | 15 | 232 | 14.5 | 27.4 | 0.05 | 1.24 | 0.91 | 72 | 1012.1 |
| 20260505172436 | 16 | 237 | 12.9 | 25.7 | 0.05 | 1.27 | 0.91 | 71 | 1012.1 |
| 20260505172027 | 16 | 224 | 6.4 | 17.7 | 0.05 | 1.27 | 0.91 | 70 | 1012.0 |
| 20260505171450 | 16 | 248 | 8.0 | 17.7 | 0.05 | 1.27 | 0.91 | 73 | 1012.1 |
| 20260505170715 | 16 | 290 | 9.7 | 17.7 | 0.05 | 1.27 | 0.91 | 74 | 1012.2 |
| 20260505170524 | 16 | 245 | 9.7 | 14.5 | 0.05 | 1.24 | 0.89 | 74 | 1012.3 |
| 20260505170343 | 16 | 267 | 8.0 | 17.7 | 0.05 | 1.27 | 0.89 | 74 | 1012.3 |
| 20260505170246 | 16 | 258 | 6.4 | 17.7 | 0.05 | 1.27 | 0.89 | 75 | 1012.3 |
| 20260505170151 | 16 | 273 | 6.4 | 17.7 | 0.05 | 1.27 | 0.89 | 75 | 1012.2 |
| 20260505170017 | 16 | 219 | 8.0 | 17.7 | 0.05 | 1.27 | 0.89 | 74 | 1012.3 |
| 20260505165826 | 16 | 235 | 8.0 | 17.7 | 0.05 | 1.27 | 0.89 | 73 | 1012.3 |
| 20260505165814 | 16 | 259 | 8.0 | 17.7 | 0.05 | 1.27 | 0.89 | 73 | 1012.3 |
| 20260505165635 | 16 | 230 | 14.5 | 19.3 | 0.05 | 1.27 | 0.89 | 72 | 1012.3 |
| 20260505165457 | 16 | 265 | 8.0 | 20.9 | 0.05 | 1.27 | 0.89 | 72 | 1012.4 |
| 20260505165343 | 16 | 294 | 6.4 | 20.9 | 0.05 | 1.27 | 0.89 | 72 | 1012.3 |
| 20260505164741 | 16 | 246 | 11.3 | 24.1 | 0.05 | 1.27 | 0.89 | 71 | 1012.4 |
| 20260505164606 | 16 | 266 | 6.4 | 24.1 | 0.05 | 1.24 | 0.89 | 72 | 1012.4 |
| 20260505164422 | 16 | 235 | 14.5 | 24.1 | 0.05 | 1.27 | 0.89 | 71 | 1012.4 |
| 20260505164319 | 16 | 248 | 16.1 | 24.1 | 0.05 | 1.27 | 0.89 | 70 | 1012.3 |
| 20260505163835 | 16 | 235 | 14.5 | 30.6 | 0.05 | 1.27 | 0.89 | 70 | 1012.3 |
| 20260505163647 | 16 | 257 | 14.5 | 30.6 | 0.05 | 1.27 | 0.89 | 70 | 1012.3 |
| 20260505163639 | 16 | 234 | 14.5 | 30.6 | 0.05 | 1.27 | 0.89 | 70 | 1012.3 |
| 20260505163451 | 16 | 271 | 12.9 | 30.6 | 0.05 | 1.27 | 0.89 | 69 | 1012.4 |
| 20260505163304 | 16 | 239 | 20.9 | 30.6 | 0.05 | 1.27 | 0.89 | 69 | 1012.3 |
| 20260505163204 | 16 | 255 | 17.7 | 30.6 | 0.05 | 1.27 | 0.89 | 69 | 1012.4 |
| 20260505163107 | 16 | 246 | 14.5 | 30.6 | 0.05 | 1.27 | 0.89 | 70 | 1012.3 |
| 20260505162925 | 16 | 258 | 19.3 | 27.4 | 0.05 | 1.27 | 0.89 | 70 | 1012.3 |
| 20260505162744 | 16 | 273 | 17.7 | 25.7 | 0.05 | 1.27 | 0.89 | 70 | 1012.3 |
| 20260505162736 | 16 | 302 | 17.7 | 25.7 | 0.05 | 1.27 | 0.89 | 70 | 1012.3 |
| 20260505162555 | 16 | 258 | 12.9 | 27.4 | 0.05 | 1.27 | 0.89 | 70 | 1012.3 |
| 20260505162416 | 16 | 233 | 9.7 | 27.4 | 0.05 | 1.27 | 0.86 | 71 | 1012.3 |
| 20260505162311 | 16 | 252 | 14.5 | 27.4 | 0.05 | 1.27 | 0.86 | 69 | 1012.3 |
| 20260505162220 | 16 | 278 | 14.5 | 27.4 | 0.05 | 1.27 | 0.86 | 68 | 1012.3 |
| 20260505162034 | 16 | 244 | 14.5 | 27.4 | 0.05 | 1.27 | 0.86 | 68 | 1012.2 |
| 20260505161614 | 16 | 236 | 11.3 | 30.6 | 0.05 | 1.27 | 0.86 | 69 | 1012.2 |
| 20260505161142 | 16 | 267 | 17.7 | 30.6 | 0.05 | 1.27 | 0.86 | 67 | 1012.2 |
| 20260505161047 | 16 | 263 | 19.3 | 30.6 | 0.05 | 1.27 | 0.86 | 67 | 1012.2 |
| 20260505160900 | 16 | 269 | 11.3 | 30.6 | 0.05 | 1.27 | 0.86 | 69 | 1012.2 |
| 20260505160708 | 16 | 279 | 14.5 | 30.6 | 0.05 | 1.27 | 0.86 | 69 | 1012.2 |
| 20260505160533 | 16 | 250 | 8.0 | 19.3 | 0.05 | 1.27 | 0.84 | 71 | 1012.2 |
| 20260505160340 | 16 | 234 | 6.4 | 17.7 | 0.05 | 1.27 | 0.84 | 71 | 1012.1 |
| 20260505160243 | 16 | 230 | 6.4 | 19.3 | 0.05 | 1.27 | 0.84 | 72 | 1012.2 |
| 20260505160153 | 16 | 217 | 6.4 | 19.3 | 0.05 | 1.27 | 0.84 | 73 | 1012.1 |
| 20260505153217 | 16 | 290 | 9.7 | 24.1 | 0.05 | 1.27 | 0.81 | 73 | 1012.2 |
| 20260505153036 | 16 | 238 | 17.7 | 24.1 | 0.08 | 1.27 | 0.81 | 72 | 1012.3 |
| 20260505152623 | 15 | 290 | 14.5 | 24.1 | 0.05 | 1.27 | 0.79 | 74 | 1012.2 |
| 20260505152438 | 15 | 300 | 14.5 | 22.5 | 0.05 | 1.27 | 0.79 | 74 | 1012.2 |
| 20260505151828 | 15 | 295 | 16.1 | 24.1 | 0.05 | 1.27 | 0.79 | 75 | 1012.3 |
| 20260505151223 | 15 | 224 | 16.1 | 24.1 | 0.05 | 1.27 | 0.79 | 74 | 1012.4 |
| 20260505151156 | 15 | 259 | 16.1 | 24.1 | 0.05 | 1.27 | 0.79 | 74 | 1012.3 |
| 20260505151008 | 15 | 269 | 11.3 | 24.1 | 0.08 | 1.27 | 0.79 | 76 | 1012.4 |
| 20260505150824 | 15 | 244 | 16.1 | 24.1 | 0.08 | 1.27 | 0.79 | 75 | 1012.3 |
| 20260505150413 | 16 | 291 | 9.7 | 22.5 | 0.05 | 1.27 | 0.79 | 77 | 1012.3 |
| 20260505140532 | 15 | 313 | 14.5 | 20.9 | 0.05 | 1.27 | 0.71 | 77 | 1012.6 |
| 20260505140349 | 15 | 258 | 9.7 | 17.7 | 0.05 | 1.27 | 0.71 | 79 | 1012.5 |
| 20260505130151 | 13 | 252 | 11.3 | 30.6 | 0.05 | 1.27 | 0.66 | 87 | 1013.0 |
| 20260505124905 | 13 | 288 | 12.9 | 25.7 | 0.05 | 1.27 | 0.64 | 86 | 1013.2 |
| 20260505124705 | 13 | 272 | 11.3 | 25.7 | 0.05 | 1.27 | 0.64 | 87 | 1013.3 |